TimeEST,TemperatureF,Dew PointF,Humidity,Sea Level PressureIn,VisibilityMPH,Wind Direction,Wind SpeedMPH,Gust SpeedMPH,PrecipitationIn,Events,Conditions,WindDirDegrees,DateUTC
12:52 AM,-18.9,-24.0,78,30.24,10.0,Calm,Calm,-,N/A,,Clear,0,2013-01-03 05:52:00
2:52 AM,-20.0,-25.1,78,30.25,10.0,Calm,Calm,-,N/A,,Clear,0,2013-01-03 07:52:00
3:52 AM,-18.9,-26.0,70,30.22,10.0,Calm,Calm,-,N/A,,Clear,0,2013-01-03 08:52:00
4:52 AM,-20.0,-26.0,74,30.21,10.0,Calm,Calm,-,N/A,,Clear,0,2013-01-03 09:52:00
5:52 AM,-20.0,-26.0,74,30.21,10.0,Calm,Calm,-,N/A,,Clear,0,2013-01-03 10:52:00
6:52 AM,-20.9,-26.0,77,30.21,10.0,Calm,Calm,-,N/A,,Scattered Clouds,0,2013-01-03 11:52:00
7:52 AM,-20.9,-27.0,73,30.23,9.0,Calm,Calm,-,N/A,,Clear,0,2013-01-03 12:52:00
8:52 AM,-18.0,-22.0,82,30.21,5.0,Calm,Calm,-,N/A,,Clear,0,2013-01-03 13:52:00
9:52 AM,-11.0,-15.0,83,30.20,10.0,Calm,Calm,-,N/A,,Clear,0,2013-01-03 14:52:00
10:52 AM,-0.9,-7.1,75,30.16,10.0,Calm,Calm,-,N/A,,Clear,0,2013-01-03 15:52:00
11:52 AM,3.0,-8.0,60,30.13,10.0,Calm,Calm,-,N/A,,Clear,0,2013-01-03 16:52:00
12:52 PM,8.1,-7.1,50,30.10,10.0,WNW,3.5,-,N/A,,Clear,300,2013-01-03 17:52:00
1:52 PM,10.0,-6.0,48,30.08,10.0,Calm,Calm,-,N/A,,Clear,0,2013-01-03 18:52:00
2:52 PM,10.9,-6.0,47,30.06,10.0,Calm,Calm,-,N/A,,Scattered Clouds,0,2013-01-03 19:52:00
3:52 PM,10.9,-4.0,51,30.04,10.0,Calm,Calm,-,N/A,,Overcast,0,2013-01-03 20:52:00
4:52 PM,10.0,-2.0,58,30.03,10.0,Calm,Calm,-,N/A,,Overcast,0,2013-01-03 21:52:00
5:52 PM,5.0,-2.0,73,30.05,10.0,Calm,Calm,-,N/A,,Overcast,0,2013-01-03 22:52:00
6:52 PM,1.9,-2.9,80,30.05,10.0,Calm,Calm,-,N/A,,Partly Cloudy,0,2013-01-03 23:52:00
7:52 PM,-0.0,-5.1,79,30.04,10.0,Calm,Calm,-,N/A,,Mostly Cloudy,0,2013-01-04 00:52:00
8:52 PM,-2.9,-9.0,75,30.03,10.0,Calm,Calm,-,N/A,,Clear,0,2013-01-04 01:52:00
9:52 PM,-0.0,-5.1,79,30.02,10.0,Calm,Calm,-,N/A,,Overcast,0,2013-01-04 02:52:00
10:52 PM,1.9,-4.0,76,29.98,10.0,Calm,Calm,-,N/A,,Overcast,0,2013-01-04 03:52:00
11:52 PM,3.0,-2.0,80,29.94,10.0,Calm,Calm,-,N/A,,Overcast,0,2013-01-04 04:52:00